User: anonymous   Login
Location: Oshawa
(43.9000°N, 78.8670°W)
Time: 14:40:14
(UTC-04:00)
Language:

Cosmos 1408 Rocket - Orbit

View from above orbital plane
View from above orbital plane
View from above satellite
View from above satellite

Ground track
Ground track

The orbit data is extracted from the following two-line orbital elements,

1 13553U 82092B   17202.61587234 +.00000087 +00000-0 +75368-5 0  9995
2 13553 082.5674 202.0032 0019919 292.8152 199.4868 14.84127473861054
Epoch (UTC): 21 July 2017 14:46:51
Eccentricity: 0.0019919
inclination: 82.5674°
perigee height: 602 km
apogee height: 630 km
right ascension of ascending node: 202.0032°
argument of perigee: 292.8152°
revolutions per day: 14.84127473
mean anomaly at epoch: 199.4868°
orbit number at epoch: 86105

The dashed part of the orbit path shows where the satellite is in the earth's shadow,  

DLR